IUS DEB, 43361

Orbit data source: Space-Track

IUS DEB, 43361 is space debris originally from a launch on Fri, 23 Jul 1999 UTC launched from the Air Force Eastern Test Range (AFETR). Debris objects in space refer to the collection of defunct objects orbiting the Earth. Examples of debris include non-operational satellites, rocket bodies, and fragments generated from explosions, collisions, or faulty payload assembly.

Loading next visibility...
Identifier
43361, 1999-040J
Orbit
Active
Country
Flag of USUS
Related business
Manufacturer
Boeing/Kent
Mission
Spacecraft
Bus & Motor
Unknown
Mass
Unknown
Launch date (UTC)
1999-07-23 (26 years ago)
Launch vehicle
Unknown
Launch site
Air Force Eastern Test Range (AFETR)
Object type
Payload
Rocket body
Debris
Shape & HBR
Unknown shape, 0.1 m
Radar Cross Section
Small (<0.1 m²)

Expand to show TLE details & history
Last TLE update: 4 days ago

TLE from 4 days ago
0 IUS DEB
1 43361U 99040J   25308.59088901  .00000415  00000-0  10620-1 0  9997
2 43361  27.8233  99.2052 3339381  75.3081 318.9135  7.21145115102319
Epoch: 2025-11-04T14:10Z
TLE epoch observation values (Epoch: 2025-11-04T14:10:52.810Z)
Latitude
0.00004°
Longitude
-157.59048°
Altitude
2,888.125 km
Speed
7.129 km/s
True Right ascension
06h 36m 49s
True Declination
0° 00' 00"
Sunlit
Object was in daylight at epoch
Visualization orbit readout
Latitude
Unknown
Longitude
Unknown
Altitude
Unknown
Speed
Unknown
Apparent Right ascension
Unknown
Apparent Declination
Unknown
Sunlit
N/A
Visualization observer readout
Local Sidereal Time
22:03:25
Azimuth
Unknown
Elevation
Unknown
Doppler factor
Unknown
Orbital elements
Apogee altitude
8,721.833 km
Perigee altitude
1,161.579 km
Semi-major axis
11,319.843 km
Eccentricity
0.33394
Inclination
27.8233°
RAAN
99.2052°
Arg. of periapsis
75.3081°
True anomaly
284.73713°
Mean anomaly
318.9135°
Eccentric anomaly
302.83753°
Mean motion
1.80212 °/min
Orbital period
199.77 mins
BSTAR
0.01062
Loading maneuver chart data...
Computing Atmospheric mass density...
Loading historical data...
Loading historical data...
Loading historical data...
Loading historical data...
Loading historical data...
Loading historical data...
Loading historical data...

Documentation

Showing up to 5 results
|